Vorticity
-1 2 1 3 8 -0 2 7 6 5 5 5 6 6 8 10 8 6 8 7 9 9 8 8 8 12 10 6 7 7 8 7 9 8 6 6 6 7 7 6 5 4 4
5 0 2 0 4 3 5 2 6 6 6 5 6 6 7 10 10 8 8 7 7 11 12 8 6 6 8 10 9 9 7 7 7 7 8 8 7 5 5 4 4 4 5
7 1 4 -0 3 3 0 4 5 6 10 6 6 8 8 9 11 8 8 7 7 6 5 5 6 5 5 6 6 6 6 6 6 6 5 4 4 5 5 6 6 7 7
14 3 3 -0 3 3 2 1 3 2 5 4 9 7 8 9 10 10 9 8 7 6 6 6 5 5 5 5 5 5 5 4 4 5 5 5 6 6 6 6 7 7 8
11 2 3 1 2 3 -0 1 3 3 4 3 0 10 7 9 9 10 10 9 8 8 8 7 7 7 7 7 7 7 7 7 7 8 8 8 8 7 6 6 6 5 5
7 5 2 3 1 2 -6 5 2 1 4 4 1 1 8 8 10 9 9 10 10 10 10 9 9 9 9 9 9 8 8 8 7 7 6 5 5 4 4 4 4 4 5
6 11 5 4 3 2 -4 3 4 2 1 2 5 2 0 3 5 5 6 9 10 9 8 8 7 6 6 6 5 5 5 5 5 5 5 5 5 5 5 6 5 5 5
10 8 8 6 5 3 1 2 3 8 3 -0 6 3 3 2 3 3 3 5 4 4 4 5 5 6 7 8 8 8 7 7 6 6 5 5 5 5 6 6 6 6 7
-3 12 7 7 7 3 3 3 4 5 4 -4 1 3 4 3 2 2 3 2 2 3 3 4 4 4 5 5 6 6 7 7 6 6 7 7 7 7 6 6 6 7 9
8 9 10 6 6 5 3 4 4 3 2 3 1 0 5 1 3 3 2 2 3 3 3 3 3 6 3 4 4 4 4 5 6 6 6 7 7 7 8 8 8 8 8
9 4 8 11 8 7 3 3 4 3 3 2 4 3 2 2 5 2 5 2 2 2 1 1 1 1 4 5 4 3 3 4 4 5 6 6 6 7 7 8 8 9 8
4 6 5 5 12 8 6 3 4 3 3 3 3 4 3 3 2 5 3 5 3 2 1 1 1 0 1 2 1 2 4 3 3 4 6 6 6 7 7 8 8 9 10
8 3 3 6 8 12 9 6 0 3 6 4 3 4 3 3 3 3 3 4 3 3 4 3 2 2 1 2 3 2 1 3 4 4 7 8 7 7 7 8 9 9 9
4 6 7 3 3 4 6 6 2 -1 1 4 7 6 5 4 3 3 3 3 3 4 4 4 3 3 3 3 3 4 3 2 3 5 9 9 9 8 8 8 8 8 9
2 10 6 5 5 5 5 8 9 4 8 10 7 6 5 5 4 3 3 3 3 3 4 4 4 3 3 4 4 5 5 3 3 5 9 9 8 8 7 8 8 8 8
2 1 9 7 5 6 4 1 1 7 10 7 7 7 7 5 5 4 4 3 3 3 3 4 5 4 4 4 4 5 5 3 3 5 9 9 8 8 7 7 7 7 7
3 2 4 4 7 -3 -1 9 5 1 1 4 4 5 7 8 6 7 6 4 4 3 3 4 5 5 5 5 4 6 5 3 3 6 9 9 8 7 7 6 5 4 4
3 2 5 2 -0 -0 6 6 7 8 7 8 4 7 6 4 4 8 9 7 5 4 5 4 4 6 6 5 4 6 5 3 3 6 9 9 8 7 6 5 4 4 4
4 3 3 1 1 3 7 4 5 12 9 11 8 10 8 3 5 6 6 4 4 4 6 7 4 5 6 6 5 6 4 3 4 7 9 9 8 7 5 4 4 4 4
4 3 4 4 5 5 5 4 3 4 7 5 6 9 6 9 8 6 6 8 7 8 12 8 6 6 7 7 7 5 4 2 5 8 9 9 8 6 4 4 4 4 4
8 6 6 4 3 2 2 3 3 2 1 2 6 7 11 11 10 10 9 7 7 9 11 7 6 6 8 7 6 5 4 2 5 9 8 9 8 6 5 4 4 3 4
15 13 11 9 9 5 3 0 -1 1 1 -1 2 4 2 11 8 7 8 6 4 7 5 8 7 10 8 8 6 5 2 4 6 10 9 8 8 7 5 4 3 3 3
11 12 14 14 16 18 21 20 16 13 12 10 5 -0 1 3 3 4 8 6 8 11 7 6 9 7 6 6 6 4 5 5 9 9 8 8 9 7 5 5 4 3 3
23 25 21 11 7 9 10 10 11 14 13 14 20 14 5 4 4 3 3 4 6 4 9 12 5 6 4 2 7 7 7 6 7 7 7 8 9 8 8 5 5 4 4
8 11 12 13 14 12 12 13 16 8 9 9 12 21 27 18 7 2 3 4 2 3 9 5 7 7 7 4 6 12 12 7 8 7 7 6 2 5 9 8 6 6 5
6 6 7 7 9 9 8 13 28 13 7 8 10 7 5 12 17 22 20 8 6 4 3 5 10 8 9 8 5 12 12 7 8 11 2 6 -3 5 7 5 4 4 5
Height
3183 3184 3185 3185 3185 3185 3185 3185 3184 3184 3183 3182 3181 3180 3179 3177 3176 3174 3173 3173 3172 3171 3170 3170 3170 3170 3171 3171 3172 3173 3173 3174 3175 3176 3176 3176 3176 3175 3175 3175 3174 3174 3174
3183 3184 3185 3185 3185 3186 3186 3186 3185 3185 3184 3183 3182 3181 3179 3177 3176 3175 3174 3174 3173 3173 3172 3172 3172 3172 3172 3173 3173 3173 3173 3174 3174 3175 3175 3175 3175 3174 3174 3174 3173 3173 3173
3181 3183 3184 3185 3185 3186 3186 3186 3186 3186 3185 3184 3183 3182 3180 3178 3177 3176 3175 3175 3174 3174 3174 3174 3174 3174 3174 3174 3174 3174 3175 3175 3175 3175 3175 3174 3174 3174 3174 3173 3173 3172 3172
3180 3182 3184 3185 3185 3186 3186 3186 3187 3187 3186 3185 3184 3183 3181 3179 3178 3177 3177 3176 3176 3175 3175 3175 3175 3174 3174 3174 3174 3174 3174 3174 3174 3174 3174 3174 3173 3173 3172 3172 3172 3171 3170
3179 3180 3183 3184 3185 3186 3186 3187 3187 3187 3187 3186 3186 3184 3183 3181 3180 3179 3178 3177 3177 3176 3176 3175 3175 3175 3175 3175 3175 3175 3175 3175 3175 3175 3174 3174 3173 3172 3172 3171 3170 3169 3168
3178 3179 3181 3183 3184 3185 3185 3187 3187 3187 3187 3187 3187 3186 3185 3184 3182 3180 3179 3179 3178 3178 3177 3177 3177 3177 3177 3177 3177 3176 3176 3176 3175 3175 3174 3173 3173 3172 3171 3170 3169 3168 3168
3176 3178 3180 3181 3183 3184 3185 3186 3187 3187 3187 3187 3187 3187 3186 3185 3184 3183 3181 3181 3180 3179 3179 3179 3178 3178 3177 3177 3177 3176 3176 3175 3175 3174 3174 3173 3172 3171 3170 3169 3168 3167 3166
3176 3177 3178 3180 3182 3183 3184 3185 3186 3186 3187 3187 3187 3187 3187 3186 3186 3185 3184 3183 3182 3181 3181 3180 3179 3179 3178 3177 3177 3177 3176 3175 3175 3174 3173 3172 3171 3169 3168 3167 3166 3166 3165
3175 3176 3177 3179 3180 3182 3183 3183 3184 3185 3186 3187 3186 3187 3187 3187 3186 3186 3185 3184 3183 3182 3182 3181 3180 3179 3179 3178 3177 3176 3176 3175 3174 3173 3172 3170 3169 3168 3167 3165 3165 3164 3164
3174 3175 3176 3177 3178 3180 3181 3181 3182 3183 3185 3186 3186 3186 3186 3186 3186 3185 3185 3184 3184 3183 3183 3181 3181 3180 3179 3178 3178 3177 3176 3175 3174 3172 3171 3169 3168 3166 3165 3164 3163 3163 3162
3172 3174 3175 3176 3177 3177 3178 3179 3180 3182 3182 3183 3184 3184 3185 3184 3184 3184 3184 3183 3183 3183 3182 3181 3180 3180 3179 3178 3177 3177 3176 3174 3173 3171 3169 3168 3166 3165 3163 3162 3161 3161 3160
3169 3171 3173 3174 3174 3175 3176 3177 3178 3179 3180 3181 3181 3181 3182 3182 3182 3182 3182 3182 3182 3181 3181 3180 3180 3179 3179 3178 3177 3176 3175 3174 3172 3170 3168 3167 3165 3164 3162 3161 3160 3158 3158
3166 3168 3169 3170 3171 3172 3173 3174 3175 3176 3177 3177 3178 3179 3179 3179 3179 3179 3179 3179 3179 3179 3178 3178 3178 3178 3177 3176 3175 3174 3173 3172 3171 3169 3167 3165 3163 3162 3161 3159 3158 3157 3156
3163 3164 3165 3167 3168 3169 3170 3171 3172 3173 3174 3174 3174 3175 3175 3176 3176 3176 3176 3176 3176 3176 3176 3175 3175 3175 3175 3174 3173 3172 3171 3170 3168 3166 3165 3163 3161 3160 3159 3157 3156 3155 3154
3159 3160 3161 3162 3164 3165 3166 3168 3168 3169 3170 3170 3170 3170 3171 3172 3172 3172 3172 3172 3172 3172 3172 3172 3172 3171 3171 3170 3170 3169 3168 3167 3166 3164 3162 3161 3159 3158 3156 3156 3154 3153 3152
3154 3156 3157 3158 3159 3160 3162 3163 3164 3165 3165 3165 3166 3166 3166 3167 3167 3167 3168 3167 3167 3167 3168 3168 3168 3168 3167 3166 3165 3165 3164 3164 3162 3161 3159 3157 3156 3155 3154 3153 3152 3151 3150
3148 3149 3152 3153 3154 3156 3157 3158 3158 3159 3160 3161 3161 3161 3161 3161 3161 3162 3162 3163 3162 3162 3162 3163 3163 3163 3162 3162 3161 3160 3160 3159 3159 3157 3155 3154 3153 3152 3151 3150 3149 3148 3148
3142 3144 3145 3146 3148 3149 3151 3152 3153 3153 3153 3155 3155 3156 3156 3156 3156 3156 3157 3157 3157 3157 3157 3157 3157 3157 3157 3157 3156 3156 3155 3155 3154 3153 3152 3150 3150 3149 3148 3147 3146 3146 3145
3135 3136 3138 3139 3141 3143 3144 3145 3146 3146 3146 3148 3148 3149 3151 3151 3151 3151 3151 3151 3151 3151 3151 3151 3151 3151 3151 3151 3151 3150 3151 3150 3149 3148 3148 3147 3146 3146 3145 3144 3143 3142 3141
3126 3127 3128 3130 3132 3135 3135 3136 3137 3138 3139 3140 3142 3143 3143 3143 3145 3145 3144 3144 3144 3144 3144 3144 3145 3145 3145 3145 3145 3145 3145 3145 3144 3143 3142 3142 3141 3140 3140 3140 3139 3138 3137
3116 3118 3120 3121 3123 3125 3125 3127 3128 3129 3133 3133 3135 3136 3135 3136 3136 3137 3137 3138 3137 3139 3138 3137 3137 3138 3139 3139 3140 3140 3139 3139 3139 3138 3137 3137 3136 3135 3135 3134 3134 3133 3132
3109 3110 3112 3113 3116 3117 3117 3118 3118 3120 3121 3123 3125 3126 3128 3128 3129 3128 3129 3130 3130 3131 3131 3131 3132 3132 3132 3133 3133 3133 3133 3133 3132 3132 3131 3131 3130 3130 3129 3128 3128 3127 3126
3102 3103 3104 3106 3107 3107 3108 3109 3108 3108 3108 3110 3113 3116 3119 3121 3121 3120 3121 3121 3122 3123 3124 3125 3125 3125 3125 3126 3126 3126 3126 3126 3127 3126 3125 3125 3124 3124 3124 3123 3122 3121 3121
3095 3096 3097 3097 3098 3099 3099 3098 3098 3098 3099 3102 3104 3106 3109 3110 3112 3111 3112 3112 3114 3115 3115 3117 3117 3118 3117 3118 3118 3119 3119 3119 3119 3119 3119 3118 3118 3118 3117 3117 3116 3115 3114
3090 3090 3090 3090 3090 3090 3090 3089 3089 3089 3090 3092 3092 3093 3095 3098 3100 3102 3102 3102 3104 3106 3107 3107 3108 3109 3110 3109 3111 3111 3110 3111 3111 3111 3111 3112 3111 3111 3110 3109 3109 3108 3107
3085 3084 3084 3084 3083 3082 3081 3081 3080 3080 3082 3082 3083 3084 3085 3086 3088 3089 3091 3090 3094 3095 3097 3099 3099 3099 3101 3100 3101 3101 3102 3102 3103 3103 3103 3104 3104 3103 3102 3101 3101 3099 3097